Location: Unspecified
(0.0000°N, 0.0000°E)
Time: 14:28:14
(UTC+00:00)

Explorer 11/Cluster Stage 4 - Pass Details

Date: 22 February 2024
Orbit: 465 x 1219 km, 28.8° (Epoch: 24 April)

Event Time Altitude Azimuth Distance (km) Brightness Sun altitude
Rises 20:07:30 0° 218° (SW) 3,638 10.7 -28.0°
Reaches altitude 10° 20:10:25 10° 207° (SSW) 2,808 9.8 -28.7°
Enters shadow 20:15:46 28° 157° (SSE) 1,956 8.4 -30.0°
